This is the latest recevied weather packets stored in our database for station/object KR4DFQ. If no packets are shown the sender has not sent any weather packets the latest 10 day(s).
| Time | Temp. | Humidity | Pressure | Rain* | Wind** | Luminosity | Snow |
|---|---|---|---|---|---|---|---|
| 1787700768 | 30.56° C | 65% | 1016.5 hPa | 0 mm | - | 16 W/m² | - |
| 1787700465 | 30.56° C | 64% | 1016.5 hPa | 0 mm | - | 24 W/m² | - |
| 1787700161 | 30.56° C | 63% | 1016.2 hPa | 0 mm | - | 33 W/m² | - |
| 1787699857 | 31.11° C | 62% | 1016.3 hPa | 0 mm | - | 47 W/m² | - |
| 1787699557 | 31.67° C | 62% | 1016.3 hPa | 0 mm | - | 59 W/m² | - |
| 1787699253 | 31.11° C | 63% | 1016.1 hPa | 0 mm | - | 66 W/m² | - |
| 1787698949 | 31.11° C | 62% | 1016.1 hPa | 0 mm | - | 76 W/m² | - |
| 1787698649 | 31.67° C | 63% | 1016 hPa | 0 mm | - | 85 W/m² | - |
| 1787698345 | 31.67° C | 62% | 1016.2 hPa | 0 mm | - | 93 W/m² | - |
| 1787698041 | 31.67° C | 61% | 1015.9 hPa | 0 mm | - | 90 W/m² | - |
| 1787697740 | 31.67° C | 61% | 1015.9 hPa | 0 mm | - | 105 W/m² | - |
| 1787697436 | 31.67° C | 60% | 1016.1 hPa | 0 mm | - | 103 W/m² | - |
| 1787697132 | 31.67° C | 60% | 1016 hPa | 0 mm | - | 98 W/m² | - |
| 1787696827 | 31.11° C | 61% | 1016.2 hPa | 0 mm | - | 104 W/m² | - |
| 1787696523 | 31.11° C | 62% | 1016.2 hPa | 0 mm | - | 111 W/m² | - |
| 1787696218 | 31.11° C | 62% | 1016.4 hPa | 0 mm | - | 111 W/m² | - |
| 1787695917 | 31.11° C | 64% | 1015.9 hPa | 0 mm | - | 111 W/m² | - |
| 1787695612 | 31.11° C | 64% | 1016.1 hPa | 0 mm | - | 112 W/m² | - |
| 1787695309 | 31.11° C | 64% | 1016.2 hPa | 0 mm | - | 115 W/m² | - |
| 1787695008 | 31.11° C | 64% | 1016.1 hPa | 0 mm | - | 119 W/m² | - |
| 1787694708 | 31.11° C | 63% | 1016.2 hPa | 0 mm | - | 122 W/m² | - |
| 1787694403 | 31.11° C | 65% | 1016.2 hPa | 0 mm | - | 123 W/m² | - |
| 1787694098 | 31.11° C | 65% | 1016 hPa | 0 mm | - | 125 W/m² | - |
| 1787693794 | 31.11° C | 65% | 1016.2 hPa | 0 mm | - | 126 W/m² | - |
| 1787693490 | 31.11° C | 66% | 1016.1 hPa | 0 mm | - | 127 W/m² | - |
* Rain latest hour (hover to see other rain measurements)
** Current wind speed in m/s (hover to see current wind gust speed)